Location: Cedar Brake
(32.2526°N, 97.8459°W)
Time: 08:21:53
(UTC+00:00)

NOSS 3-4 (A) - Pass Details

Date: 22 April 2026
Orbit: 769 x 1442 km, 63.4° (Epoch: 10 January)

Event Time Altitude Azimuth Distance (km) Brightness Sun altitude
Rises 10:48:15 0° 325° (NW) 3,896 6.5 -14.0°
Reaches altitude 10° 10:50:47 10° 322° (NW) 3,028 5.9 -13.5°
Maximum altitude 10:58:01 62° 244° (WSW) 1,410 4.0 -12.1°
Drops below altitude 10° 11:06:20 10° 166° (SSE) 3,449 6.3 -10.4°
Sets 11:09:24 0° 163° (SSE) 4,470 6.9 -9.8°
